SCP
0 0 0 0 0 0 0 0 0 0 0 0 0 0 0 0 -0 0 0 0 0 0 0 0 -0 -0 0 0 0 0 0 0 0 0 0 0 0 0 0 0 0 0 0 0 0 0 0 0 0 0 0 0 0 0
0 0 0 0 0 0 0 0 0 0 0 0 0 0 -0 -0 -0 -0 0 0 0 0 0 0 0 -0 -0 0 0 0 0 0 0 0 0 0 0 0 0 0 0 0 0 0 0 0 0 0 0 0 0 0 0 0
0 0 0 0 0 0 0 0 0 0 0 0 0 -0 -0 -0 -0 -0 0 0 0 0 0 0 0 -0 -0 0 0 0 0 0 0 0 0 0 0 0 0 0 0 0 0 0 0 0 0 0 0 0 0 0 0 0
0 0 0 0 0 0 0 0 0 0 0 0 -0 -0 -0 -0 -0 -0 0 0 0 0 0 0 -0 -0 0 0 0 0 0 0 0 0 0 0 0 0 0 0 0 0 0 0 0 0 0 0 0 0 0 0 0 0
0 0 0 0 0 0 0 0 0 0 0 0 -0 -0 -0 -0 -0 -0 0 0 0 0 0 0 0 -0 -0 0 0 0 0 0 0 0 0 0 0 0 0 0 0 0 0 0 0 0 0 0 0 0 0 0 0 0
0 0 0 0 0 0 0 0 0 0 -0 -0 -0 -0 -0 -0 -0 0 0 0 0 0 0 0 0 0 0 0 0 0 0 0 0 0 0 0 0 0 0 0 0 0 0 0 0 0 0 0 0 0 0 0 0 0
0 0 0 0 0 0 0 0 0 -0 -0 -0 0 -0 -0 -0 -0 0 0 0 0 0 0 0 0 0 0 0 0 0 0 0 0 0 0 0 0 0 0 0 0 0 0 0 0 0 0 0 0 0 0 0 0 0
0 0 0 0 0 0 0 0 0 -0 -0 0 -0 -0 -0 -0 -0 0 0 0 0 0 0 -0 0 0 0 0 0 0 0 0 0 0 0 0 0 0 0 0 0 0 0 0 0 0 0 0 0 0 0 0 0 0
0 0 0 0 0 0 0 0 0 0 -0 0 -0 -0 0 -0 0 0 0 0 0 0 0 0 0 0 0 0 0 0 0 0 0 0 0 0 0 0 0 0 0 0 0 0 0 0 0 0 0 0 0 0 0 0
0 0 0 0 0 0 0 0 -0 -0 0 -0 -0 0 0 0 0 -0 0 0 0 0 0 0 0 0 0 0 0 0 0 0 0 0 0 0 0 0 0 0 0 0 0 0 0 0 0 0 0 0 0 0 0 0
0 0 0 0 0 0 -0 -0 -0 -0 0 0 0 0 0 0 0 0 0 0 0 0 0 0 0 0 0 0 0 0 0 0 0 0 0 0 0 0 0 0 0 0 0 0 0 0 0 0 0 0 0 0 0 0
0 0 0 0 0 -0 -0 -0 -0 0 0 -0 -0 0 0 0 0 0 0 0 0 0 0 0 0 0 0 0 0 0 0 0 0 0 0 0 0 0 0 0 0 0 0 0 0 0 0 0 0 0 0 0 0 0
0 0 0 0 0 -0 -0 -0 -0 -0 -0 -0 0 0 0 0 0 0 0 0 0 0 0 0 0 0 0 0 0 0 0 0 0 0 0 0 0 0 0 0 0 0 0 0 0 0 0 0 0 0 0 0 0 0
0 0 0 -0 -0 -0 -0 -0 -0 -0 0 -0 0 0 0 0 0 0 0 0 0 0 -0 0 0 0 0 0 0 0 0 0 0 0 0 0 0 0 0 0 0 0 0 0 0 0 0 0 0 0 0 0 0 0
0 0 -0 -0 -0 -0 -0 -0 -0 -0 0 0 0 0 0 0 0 0 0 0 0 0 0 0 0 0 0 0 0 0 0 0 0 0 0 0 0 0 0 0 0 0 0 0 0 0 0 0 0 0 0 0 0 0
0 0 0 0 -0 -0 -0 0 0 0 0 0 0 0 0 0 0 0 0 0 0 0 0 0 0 0 0 0 0 0 0 0 0 0 0 0 0 0 0 0 0 0 0 0 0 0 0 0 0 0 0 0 0 0
0 0 0 -0 -0 -0 0 0 0 0 0 0 0 -0 0 0 0 0 0 0 0 0 0 0 0 0 0 0 0 0 0 0 0 0 0 0 -0 0 0 0 0 0 0 0 0 0 0 0 0 0 0 0 0 0
0 0 -0 -0 0 0 -0 -0 0 0 0 -0 0 0 0 0 0 0 0 0 0 0 0 0 0 0 0 0 0 0 0 0 0 0 0 0 0 -0 0 0 0 0 0 0 0 0 0 0 0 0 0 0 0 0
-0 -0 -0 -0 0 0 0 0 0 0 0 0 0 0 0 0 0 0 0 0 0 0 0 0 0 0 0 0 -0 -0 -0 -0 -0 -0 -0 0 0 0 -0 -0 -0 0 0 0 0 0 0 0 0 0 0 0 0 0
-0 0 -0 0 0 0 0 0 -0 0 0 0 0 0 0 0 0 0 0 0 0 0 0 0 0 0 0 0 0 -0 -0 -0 -0 -0 0 0 0 0 0 0 0 0 0 0 0 0 0 0 0 0 0 0 0 0
0 0 0 0 0 0 0 0 0 0 0 0 0 0 0 0 0 0 0 0 0 0 0 0 0 0 -0 0 0 0 -0 0 0 -0 0 -0 0 0 0 0 0 0 0 0 0 0 -0 0 0 0 0 0 0 0
0 0 0 0 0 0 0 0 0 0 0 0 0 0 0 0 -0 0 -0 0 0 0 0 0 0 0 0 -0 -0 -0 -0 -0 -0 -0 -0 -0 -0 0 0 0 0 0 0 0 0 0 0 0 0 0 0 0 0 0
0 0 0 0 0 0 0 0 0 0 0 0 0 0 0 0 0 -0 0 0 0 0 0 0 0 0 0 0 0 0 -0 -0 -0 -0 0 0 0 0 0 0 -0 0 0 0 0 0 0 0 0 0 0 0 0 0
0 0 0 0 0 0 0 0 0 0 0 0 0 0 0 0 0 0 0 0 0 0 0 0 0 0 0 0 0 0 0 -0 0 -0 -0 0 0 0 0 -0 0 -0 -0 0 0 0 0 0 0 0 0 0 0 0
0 0 0 0 0 0 0 0 0 0 0 0 0 0 0 0 0 0 0 0 0 0 0 0 0 0 0 0 0 0 0 0 -0 -0 -0 0 0 0 0 0 0 0 0 0 0 0 0 0 0 0 0 0 0 0
0 0 0 0 0 0 0 0 0 -0 0 0 0 0 0 0 0 0 0 0 0 0 0 0 0 0 0 0 0 0 -0 -0 0 0 0 0 0 0 0 0 0 0 0 0 0 0 0 0 0 0 0 0 0 0
0 0 0 0 0 0 0 0 0 0 0 0 0 0 0 0 0 0 0 0 0 0 0 0 0 0 0 0 0 0 0 0 0 0 0 0 0 0 0 0 0 0 0 0 0 0 0 0 0 0 0 0 0 0
0 0 0 0 0 0 0 0 0 0 0 0 -0 0 0 0 0 0 0 0 0 0 0 0 0 0 0 0 0 0 0 0 0 0 0 0 0 0 0 0 0 0 0 0 0 0 0 0 0 0 0 0 0 0
0 0 0 0 0 0 0 0 0 0 0 0 0 0 0 0 0 0 0 0 0 0 0 0 0 0 0 0 0 0 0 0 0 0 0 0 0 0 0 0 -0 -0 -0 -0 -0 -0 -0 0 0 0 0 0 0 0
0 0 0 0 0 0 0 0 0 0 0 0 0 0 0 0 0 0 0 0 0 -0 0 -0 0 0 0 0 0 0 0 0 0 0 0 0 0 0 0 0 0 -0 0 0 0 0 0 0 0 0 0 0 0 0
0 0 0 0 0 0 0 0 0 0 0 0 0 0 0 0 0 0 0 0 0 0 0 0 0 0 0 -0 0 0 0 0 0 0 0 0 0 0 0 0 0 0 0 0 0 0 0 0 0 0 0 0 0 0
0 0 0 0 0 0 0 -0 -0 0 0 0 0 0 0 0 0 0 0 0 0 0 0 0 0 0 0 -0 -0 0 -0 -0 -0 -0 -0 0 0 0 0 0 0 0 0 0 0 0 0 0 0 0 0 0 0 0
0 0 0 0 -0 -0 0 -0 0 0 0 0 0 0 0 0 0 0 0 0 0 0 0 0 0 0 -0 -0 -0 -0 -0 -0 -0 -0 -0 0 0 0 0 0 0 0 0 0 0 0 0 0 0 0 0 0 0 0
Wind_Speed_500mb
44 44 45 47 48 50 47 44 44 45 43 46 48 47 47 42 38 41 29 28 18 15 38 27 25 17 12 11 9 26 6 1 3 5 3 7 13 7 16 21 23 15 10 7 5 6 5 16 6 5 13 9 12 12
42 43 43 46 46 46 44 43 42 43 40 44 43 46 47 44 37 41 26 32 30 19 29 32 17 17 19 3 26 21 13 20 17 6 7 4 8 6 22 15 18 11 12 10 6 7 21 36 31 22 12 7 11 20
42 42 43 42 40 39 42 43 43 46 43 42 43 43 45 41 35 37 30 27 27 21 28 29 8 10 18 15 14 13 18 22 14 16 9 9 13 4 6 6 16 10 21 8 14 23 21 21 19 11 13 13 16 14
40 41 42 38 35 40 45 44 44 47 45 41 43 40 41 39 33 34 26 28 24 16 8 3 3 10 14 6 9 14 16 16 12 16 6 1 5 9 10 10 13 10 14 21 24 24 27 27 25 17 25 21 14 15
38 39 41 37 38 41 41 42 45 49 43 37 40 37 38 37 33 26 23 27 11 14 4 19 4 9 8 12 11 12 14 13 10 3 1 5 8 8 12 0 12 4 11 5 14 19 27 26 21 23 17 16 17 19
36 37 40 40 42 42 44 47 49 48 40 39 40 38 38 31 24 22 9 1 5 10 8 5 2 3 6 10 15 11 7 9 8 3 12 9 6 11 6 7 16 22 30 22 29 30 30 30 26 20 18 15 16 16
34 36 38 40 39 41 47 50 49 43 39 41 38 37 27 15 16 11 8 19 15 7 6 8 5 2 4 6 4 10 7 3 4 7 0 9 9 9 4 8 20 20 24 24 21 31 28 17 21 17 15 14 14 16
33 34 35 34 36 40 43 43 44 42 41 41 38 19 11 9 9 11 15 11 8 8 8 2 4 4 2 4 5 6 8 5 8 8 2 6 9 4 4 20 27 21 24 19 24 22 26 23 16 17 14 15 15 20
33 31 32 30 33 34 37 44 46 39 36 32 16 11 9 7 5 10 9 4 2 8 12 5 3 4 8 5 4 7 6 4 6 2 7 1 6 5 17 20 19 16 18 22 24 22 18 15 19 16 14 16 18 21
30 29 29 29 32 29 39 46 39 35 24 16 16 7 5 10 11 10 4 3 12 9 11 6 9 1 6 9 4 7 2 1 4 5 7 2 7 20 15 18 29 22 24 23 21 16 5 16 18 16 14 16 18 20
29 28 30 29 28 28 38 34 36 20 17 13 12 7 12 13 8 4 4 5 2 5 8 5 10 2 4 3 1 6 4 5 4 3 6 4 6 12 15 19 25 25 21 18 22 17 18 18 16 14 14 16 18 20
29 27 27 21 22 27 29 28 25 13 14 17 14 11 9 5 4 5 4 3 5 4 2 6 6 3 3 4 1 4 4 6 3 14 6 8 10 23 23 24 22 21 21 19 19 22 20 19 17 16 15 16 17 19
27 24 22 18 21 28 24 18 19 16 14 8 6 5 4 2 4 7 8 7 5 4 4 9 4 2 6 8 4 5 9 5 23 5 5 5 32 35 36 36 32 25 23 23 23 22 21 20 18 16 15 15 15 18
24 22 20 16 19 26 24 16 17 13 6 5 5 6 7 4 7 5 6 6 4 2 9 7 6 4 3 6 6 5 6 7 6 11 5 14 32 38 40 30 27 21 22 24 23 21 19 17 18 16 16 14 15 18
19 18 18 11 20 25 23 12 12 7 3 5 5 7 4 14 15 14 16 13 11 8 4 7 7 6 7 7 6 4 8 7 6 2 13 33 36 33 33 28 23 22 24 23 20 18 17 15 15 15 14 15 16 17
14 12 8 15 26 28 16 10 6 3 3 5 7 9 10 19 11 11 13 13 6 5 5 2 3 4 8 5 7 7 3 1 4 8 33 39 36 38 34 24 20 20 24 23 22 18 14 13 13 13 13 13 15 16
5 3 15 26 25 15 9 8 2 3 5 6 10 12 15 20 20 14 8 11 3 7 1 6 7 11 5 6 6 5 4 8 23 24 32 40 37 33 27 22 18 25 24 24 20 17 14 12 11 10 11 12 12 12
8 17 35 28 13 12 7 3 2 4 9 13 10 16 20 25 19 15 11 15 11 12 13 7 5 5 3 1 6 10 22 19 31 30 33 37 31 25 20 20 20 28 22 21 20 16 14 10 10 8 9 9 9 8
21 26 15 9 5 7 3 4 5 6 11 15 16 21 22 17 15 12 11 12 14 15 20 14 4 4 7 14 18 21 20 20 27 29 32 27 23 23 24 25 23 24 21 21 17 14 16 8 9 7 6 6 7 10
7 4 7 10 8 4 4 6 7 6 10 9 19 16 7 6 2 1 6 15 11 12 7 4 7 15 20 18 16 12 15 25 33 34 25 25 25 28 27 26 24 19 19 17 14 13 9 11 10 8 5 6 6 7
1 7 7 10 10 8 6 6 7 9 10 12 14 17 13 17 5 1 2 7 4 6 4 3 14 20 20 18 14 14 13 21 24 30 34 31 29 26 26 23 23 20 19 20 14 15 11 9 12 7 6 7 6 8
5 2 9 8 5 6 9 11 9 11 8 14 14 10 12 5 12 10 11 12 4 4 8 4 11 17 14 15 15 18 23 29 28 22 25 28 31 28 26 22 21 19 13 10 13 11 13 13 11 10 8 5 6 5
3 4 1 5 5 7 11 10 9 8 6 5 7 7 7 3 3 2 7 10 9 8 8 9 6 9 10 11 10 15 20 23 25 24 27 27 25 18 17 15 15 15 15 13 7 8 13 12 7 6 10 6 5 3
9 5 5 7 13 8 4 7 7 5 4 3 3 7 4 3 2 7 2 8 10 7 9 12 6 7 12 6 8 17 23 19 25 25 25 25 24 23 17 13 13 13 13 12 10 7 7 8 10 5 8 4 4 3
7 8 8 8 9 7 6 4 6 7 5 10 6 4 3 3 4 5 3 12 9 10 8 8 8 4 4 1 9 21 21 21 24 24 18 18 20 23 20 15 13 10 7 6 7 8 8 5 3 4 5 6 3 1
8 10 11 8 9 9 9 5 10 10 2 4 2 5 6 5 6 3 6 14 11 9 8 6 8 8 8 2 9 29 30 22 24 22 18 21 19 22 22 20 17 12 9 7 7 7 6 4 4 2 4 2 10 2
6 8 14 13 8 9 9 4 9 4 2 1 2 4 2 3 3 6 4 7 3 7 8 8 10 11 10 11 7 29 29 23 24 23 18 17 17 19 25 26 21 14 11 10 9 7 6 5 5 3 2 1 4 4
10 8 7 10 14 14 7 5 5 5 5 2 5 5 2 2 2 1 3 14 14 15 11 12 11 11 10 8 12 13 28 36 33 30 27 27 27 27 27 20 18 17 9 13 13 8 7 6 5 5 5 4 5 5
9 10 12 16 14 10 7 3 5 5 5 3 2 3 3 2 3 9 14 14 10 9 12 12 13 18 20 22 17 21 27 34 40 36 29 22 23 19 17 17 15 11 12 15 14 8 13 16 15 10 8 7 7 7
13 18 10 9 8 5 4 7 6 7 3 1 5 8 6 5 8 11 10 8 5 1 7 7 12 24 29 33 24 24 26 26 29 35 34 30 28 25 22 19 17 14 12 9 11 14 16 16 18 13 12 9 8 6
7 12 6 7 3 6 9 6 4 4 0 4 9 8 4 1 9 12 8 4 2 5 11 4 21 24 23 36 26 29 29 24 26 26 27 27 27 26 24 20 16 13 12 11 9 8 12 12 11 11 13 14 14 13
12 12 8 8 5 9 4 1 3 4 5 4 7 5 4 4 5 5 4 4 13 11 11 6 7 13 21 26 25 23 29 30 31 28 20 26 25 23 20 15 13 13 13 13 12 12 12 12 12 13 14 14 14 13
20 19 19 8 7 6 7 5 3 3 7 6 8 10 8 5 4 5 5 17 27 21 16 16 24 29 31 33 35 34 29 33 27 27 31 29 29 23 17 13 13 14 15 15 15 16 17 17 17 17 16 14 12 8
Wind_Direction_500mb
324 326 327 330 332 333 332 333 333 337 339 341 344 344 343 340 339 340 317 320 321 303 302 359 9 22 8 17 359 311 157 29 246 291 217 22 119 69 139 133 168 159 120 185 204 168 154 125 120 35 112 103 39 7
321 323 327 330 335 340 339 336 334 336 336 341 340 342 340 336 336 338 323 325 316 277 275 300 336 32 20 88 281 301 325 43 16 342 5 79 101 89 127 122 159 156 156 176 161 124 104 88 94 101 81 37 19 37
318 320 326 330 336 341 343 338 333 333 331 333 336 336 337 330 327 331 316 317 324 300 288 235 224 20 19 342 326 310 13 359 37 357 345 12 74 328 121 81 154 94 131 117 125 134 124 107 94 83 61 50 37 15
317 319 324 327 329 334 336 335 335 333 330 323 330 333 331 332 323 318 309 307 318 311 290 275 99 197 21 334 313 356 337 350 3 3 27 97 94 2 70 93 74 44 162 165 121 136 131 108 86 68 66 62 40 10
313 315 323 320 321 327 328 329 332 332 330 325 327 331 330 330 327 318 307 293 304 308 341 287 210 102 61 40 39 16 5 323 296 107 163 72 58 356 30 214 143 127 54 192 111 68 97 112 110 85 69 46 23 0
312 318 322 321 319 322 324 326 329 329 326 327 328 327 325 326 329 338 337 263 299 12 314 293 326 81 70 60 59 63 347 344 351 341 63 77 11 317 149 113 86 76 75 102 97 96 110 102 90 75 57 29 12 7
312 315 321 325 324 326 326 328 327 329 328 327 324 321 320 320 318 302 301 298 319 357 305 303 184 185 70 344 57 68 63 21 335 74 319 91 126 302 324 92 118 118 108 102 112 113 100 103 93 71 47 29 20 27
309 313 321 326 327 333 334 335 330 328 328 327 327 335 336 318 331 317 305 302 335 301 267 261 268 170 274 166 108 27 15 52 8 65 176 117 125 249 95 116 117 124 127 126 109 101 108 112 101 68 55 36 35 28
309 314 318 323 329 332 336 333 332 333 334 336 347 1 37 42 301 308 290 229 197 275 309 277 277 161 178 129 119 86 32 74 338 235 84 36 155 58 106 127 132 144 135 114 115 120 131 137 91 78 56 45 38 29
308 312 314 316 322 326 333 336 333 333 340 354 6 336 2 326 306 325 312 178 195 233 236 293 347 65 191 147 151 151 85 128 128 354 117 138 40 105 92 108 109 111 115 136 134 134 117 109 100 84 63 51 43 35
309 310 314 315 320 327 337 339 341 353 22 358 345 337 319 346 358 273 291 239 204 268 254 41 72 129 32 235 169 115 175 153 137 200 137 217 142 116 122 124 120 128 123 117 110 101 85 91 105 92 72 56 48 39
309 310 318 315 319 333 338 342 351 0 343 323 314 321 339 314 287 296 250 211 232 250 225 334 66 48 51 350 316 159 197 155 140 153 186 174 133 149 125 130 123 122 119 120 117 107 106 106 102 94 77 63 54 46
308 309 314 314 321 336 339 335 352 340 338 326 323 289 274 251 302 240 209 197 168 182 226 169 169 315 225 228 230 237 205 144 136 187 206 117 137 131 136 140 140 138 130 118 117 117 114 105 97 90 80 69 64 55
304 303 308 304 313 330 335 328 341 336 354 287 318 276 251 225 252 348 9 315 357 18 218 191 180 207 208 214 248 227 130 137 198 194 178 141 151 143 140 143 134 135 136 134 129 126 120 107 97 90 80 76 71 61
302 305 307 283 322 325 326 314 315 329 313 287 284 263 281 339 314 335 321 301 303 282 234 182 205 189 202 243 210 213 196 211 229 77 128 143 146 149 145 143 144 146 144 137 139 133 125 115 104 94 86 79 72 63
311 326 304 292 313 328 327 317 309 323 268 258 242 265 306 298 300 329 311 294 294 130 109 9 240 231 225 237 220 211 260 8 94 124 134 139 146 154 148 153 165 158 148 145 139 133 126 119 113 105 93 80 70 59
320 272 296 302 301 319 310 326 337 237 259 254 241 265 286 279 274 277 270 265 341 121 308 232 218 224 222 223 194 86 59 106 114 125 142 149 150 150 156 166 157 144 144 138 135 135 129 126 122 108 90 78 68 59
331 301 282 291 299 341 322 249 252 261 251 251 258 268 271 274 263 264 246 257 246 204 243 238 304 218 233 41 86 99 105 117 134 139 142 140 141 148 155 151 151 139 146 145 143 142 148 148 140 107 99 84 68 55
281 260 276 248 277 331 308 242 224 265 264 270 257 268 245 257 266 260 234 230 241 269 299 312 292 42 54 65 86 105 125 130 138 140 141 141 148 157 153 152 141 148 150 148 146 179 149 109 108 107 100 92 73 45
291 262 192 211 220 269 259 248 218 272 279 297 288 292 293 202 41 324 213 205 241 304 282 354 10 101 97 89 81 102 142 145 144 139 145 153 161 154 148 153 151 149 155 152 157 152 138 150 141 121 102 98 78 55
221 227 221 196 210 234 269 275 239 243 291 289 296 299 298 175 144 326 183 170 220 249 288 44 71 65 92 87 82 60 137 156 147 157 159 161 156 147 142 141 156 158 164 168 162 185 196 168 149 144 164 123 83 60
231 231 213 209 239 237 257 231 256 300 271 275 290 278 276 268 156 194 184 189 227 337 126 103 61 82 94 86 99 91 117 136 143 145 146 152 166 159 156 167 166 172 168 175 174 163 174 177 156 164 184 214 167 175
254 171 211 229 251 231 267 227 238 209 242 275 299 281 261 301 111 206 234 179 144 147 115 125 97 83 117 124 122 148 153 150 156 156 157 168 157 153 157 164 181 169 167 168 159 156 146 148 185 172 201 240 191 211
203 220 241 224 207 255 239 227 235 260 285 272 248 277 295 325 329 274 202 154 130 110 99 64 59 120 110 166 149 159 170 175 152 159 171 159 159 159 159 165 165 129 145 176 167 173 180 175 170 233 218 207 205 213
180 227 209 252 233 232 223 211 235 213 243 208 231 224 251 259 236 237 230 99 102 99 63 56 50 51 27 48 154 160 171 166 172 168 167 163 151 140 140 129 113 110 132 150 172 186 195 203 207 156 117 111 106 292
219 212 193 227 200 214 210 231 197 204 225 233 215 353 2 301 253 168 67 51 59 42 22 355 342 333 2 181 198 175 178 181 176 167 159 159 158 156 152 148 139 119 115 127 147 160 168 171 126 106 125 54 23 53
254 243 216 235 248 247 260 216 150 122 191 234 0 350 50 284 326 62 43 15 0 307 320 298 280 265 266 313 299 195 202 166 168 150 141 148 143 174 181 149 138 130 116 113 122 136 159 164 160 163 174 150 55 35
254 276 236 213 222 242 251 247 183 140 140 129 213 175 242 285 356 9 329 290 288 281 285 285 262 214 220 212 151 175 202 177 153 135 128 126 140 139 145 152 157 159 160 146 122 121 133 150 154 150 145 123 87 60
247 253 263 254 239 230 243 289 88 97 135 216 302 340 95 197 249 298 305 302 288 281 266 262 255 214 192 168 126 154 168 170 162 151 131 138 130 128 146 145 143 149 151 175 198 225 173 151 140 133 128 123 106 78
238 194 224 248 216 229 87 58 106 140 149 204 279 273 234 222 297 304 309 304 301 146 348 270 256 190 180 180 169 148 152 159 163 161 161 160 154 146 143 137 130 126 118 95 90 99 108 99 100 103 113 119 107 96
175 183 263 274 296 80 105 118 132 144 61 281 279 249 274 247 298 293 282 266 257 158 304 211 158 155 174 174 160 154 160 162 151 168 167 171 155 153 143 142 144 143 141 142 137 119 119 129 121 110 101 93 90 89
204 202 216 237 183 108 118 255 230 246 184 228 208 208 242 230 243 266 231 171 156 121 144 88 215 178 154 147 155 159 150 144 162 160 153 146 148 145 141 142 139 134 133 135 134 135 138 137 130 122 112 102 92 84
211 216 229 246 181 205 185 195 182 241 229 237 202 192 197 219 239 242 207 178 163 123 129 129 104 118 131 142 150 156 163 154 154 166 165 158 148 142 133 134 135 137 137 136 132 134 136 134 130 125 118 110 96 77
Wind_Speed_850mb
44 44 45 47 48 50 47 44 44 45 43 46 48 47 47 42 38 41 29 28 18 15 38 27 25 17 12 11 9 26 6 1 3 5 3 7 13 7 16 21 23 15 10 7 5 6 5 16 6 5 13 9 12 12
42 43 43 46 46 46 44 43 42 43 40 44 43 46 47 44 37 41 26 32 30 19 29 32 17 17 19 3 26 21 13 20 17 6 7 4 8 6 22 15 18 11 12 10 6 7 21 36 31 22 12 7 11 20
42 42 43 42 40 39 42 43 43 46 43 42 43 43 45 41 35 37 30 27 27 21 28 29 8 10 18 15 14 13 18 22 14 16 9 9 13 4 6 6 16 10 21 8 14 23 21 21 19 11 13 13 16 14
40 41 42 38 35 40 45 44 44 47 45 41 43 40 41 39 33 34 26 28 24 16 8 3 3 10 14 6 9 14 16 16 12 16 6 1 5 9 10 10 13 10 14 21 24 24 27 27 25 17 25 21 14 15
38 39 41 37 38 41 41 42 45 49 43 37 40 37 38 37 33 26 23 27 11 14 4 19 4 9 8 12 11 12 14 13 10 3 1 5 8 8 12 0 12 4 11 5 14 19 27 26 21 23 17 16 17 19
36 37 40 40 42 42 44 47 49 48 40 39 40 38 38 31 24 22 9 1 5 10 8 5 2 3 6 10 15 11 7 9 8 3 12 9 6 11 6 7 16 22 30 22 29 30 30 30 26 20 18 15 16 16
34 36 38 40 39 41 47 50 49 43 39 41 38 37 27 15 16 11 8 19 15 7 6 8 5 2 4 6 4 10 7 3 4 7 0 9 9 9 4 8 20 20 24 24 21 31 28 17 21 17 15 14 14 16
33 34 35 34 36 40 43 43 44 42 41 41 38 19 11 9 9 11 15 11 8 8 8 2 4 4 2 4 5 6 8 5 8 8 2 6 9 4 4 20 27 21 24 19 24 22 26 23 16 17 14 15 15 20
33 31 32 30 33 34 37 44 46 39 36 32 16 11 9 7 5 10 9 4 2 8 12 5 3 4 8 5 4 7 6 4 6 2 7 1 6 5 17 20 19 16 18 22 24 22 18 15 19 16 14 16 18 21
30 29 29 29 32 29 39 46 39 35 24 16 16 7 5 10 11 10 4 3 12 9 11 6 9 1 6 9 4 7 2 1 4 5 7 2 7 20 15 18 29 22 24 23 21 16 5 16 18 16 14 16 18 20
29 28 30 29 28 28 38 34 36 20 17 13 12 7 12 13 8 4 4 5 2 5 8 5 10 2 4 3 1 6 4 5 4 3 6 4 6 12 15 19 25 25 21 18 22 17 18 18 16 14 14 16 18 20
29 27 27 21 22 27 29 28 25 13 14 17 14 11 9 5 4 5 4 3 5 4 2 6 6 3 3 4 1 4 4 6 3 14 6 8 10 23 23 24 22 21 21 19 19 22 20 19 17 16 15 16 17 19
27 24 22 18 21 28 24 18 19 16 14 8 6 5 4 2 4 7 8 7 5 4 4 9 4 2 6 8 4 5 9 5 23 5 5 5 32 35 36 36 32 25 23 23 23 22 21 20 18 16 15 15 15 18
24 22 20 16 19 26 24 16 17 13 6 5 5 6 7 4 7 5 6 6 4 2 9 7 6 4 3 6 6 5 6 7 6 11 5 14 32 38 40 30 27 21 22 24 23 21 19 17 18 16 16 14 15 18
19 18 18 11 20 25 23 12 12 7 3 5 5 7 4 14 15 14 16 13 11 8 4 7 7 6 7 7 6 4 8 7 6 2 13 33 36 33 33 28 23 22 24 23 20 18 17 15 15 15 14 15 16 17
14 12 8 15 26 28 16 10 6 3 3 5 7 9 10 19 11 11 13 13 6 5 5 2 3 4 8 5 7 7 3 1 4 8 33 39 36 38 34 24 20 20 24 23 22 18 14 13 13 13 13 13 15 16
5 3 15 26 25 15 9 8 2 3 5 6 10 12 15 20 20 14 8 11 3 7 1 6 7 11 5 6 6 5 4 8 23 24 32 40 37 33 27 22 18 25 24 24 20 17 14 12 11 10 11 12 12 12
8 17 35 28 13 12 7 3 2 4 9 13 10 16 20 25 19 15 11 15 11 12 13 7 5 5 3 1 6 10 22 19 31 30 33 37 31 25 20 20 20 28 22 21 20 16 14 10 10 8 9 9 9 8
21 26 15 9 5 7 3 4 5 6 11 15 16 21 22 17 15 12 11 12 14 15 20 14 4 4 7 14 18 21 20 20 27 29 32 27 23 23 24 25 23 24 21 21 17 14 16 8 9 7 6 6 7 10
7 4 7 10 8 4 4 6 7 6 10 9 19 16 7 6 2 1 6 15 11 12 7 4 7 15 20 18 16 12 15 25 33 34 25 25 25 28 27 26 24 19 19 17 14 13 9 11 10 8 5 6 6 7
1 7 7 10 10 8 6 6 7 9 10 12 14 17 13 17 5 1 2 7 4 6 4 3 14 20 20 18 14 14 13 21 24 30 34 31 29 26 26 23 23 20 19 20 14 15 11 9 12 7 6 7 6 8
5 2 9 8 5 6 9 11 9 11 8 14 14 10 12 5 12 10 11 12 4 4 8 4 11 17 14 15 15 18 23 29 28 22 25 28 31 28 26 22 21 19 13 10 13 11 13 13 11 10 8 5 6 5
3 4 1 5 5 7 11 10 9 8 6 5 7 7 7 3 3 2 7 10 9 8 8 9 6 9 10 11 10 15 20 23 25 24 27 27 25 18 17 15 15 15 15 13 7 8 13 12 7 6 10 6 5 3
9 5 5 7 13 8 4 7 7 5 4 3 3 7 4 3 2 7 2 8 10 7 9 12 6 7 12 6 8 17 23 19 25 25 25 25 24 23 17 13 13 13 13 12 10 7 7 8 10 5 8 4 4 3
7 8 8 8 9 7 6 4 6 7 5 10 6 4 3 3 4 5 3 12 9 10 8 8 8 4 4 1 9 21 21 21 24 24 18 18 20 23 20 15 13 10 7 6 7 8 8 5 3 4 5 6 3 1
8 10 11 8 9 9 9 5 10 10 2 4 2 5 6 5 6 3 6 14 11 9 8 6 8 8 8 2 9 29 30 22 24 22 18 21 19 22 22 20 17 12 9 7 7 7 6 4 4 2 4 2 10 2
6 8 14 13 8 9 9 4 9 4 2 1 2 4 2 3 3 6 4 7 3 7 8 8 10 11 10 11 7 29 29 23 24 23 18 17 17 19 25 26 21 14 11 10 9 7 6 5 5 3 2 1 4 4
10 8 7 10 14 14 7 5 5 5 5 2 5 5 2 2 2 1 3 14 14 15 11 12 11 11 10 8 12 13 28 36 33 30 27 27 27 27 27 20 18 17 9 13 13 8 7 6 5 5 5 4 5 5
9 10 12 16 14 10 7 3 5 5 5 3 2 3 3 2 3 9 14 14 10 9 12 12 13 18 20 22 17 21 27 34 40 36 29 22 23 19 17 17 15 11 12 15 14 8 13 16 15 10 8 7 7 7
13 18 10 9 8 5 4 7 6 7 3 1 5 8 6 5 8 11 10 8 5 1 7 7 12 24 29 33 24 24 26 26 29 35 34 30 28 25 22 19 17 14 12 9 11 14 16 16 18 13 12 9 8 6
7 12 6 7 3 6 9 6 4 4 0 4 9 8 4 1 9 12 8 4 2 5 11 4 21 24 23 36 26 29 29 24 26 26 27 27 27 26 24 20 16 13 12 11 9 8 12 12 11 11 13 14 14 13
12 12 8 8 5 9 4 1 3 4 5 4 7 5 4 4 5 5 4 4 13 11 11 6 7 13 21 26 25 23 29 30 31 28 20 26 25 23 20 15 13 13 13 13 12 12 12 12 12 13 14 14 14 13
20 19 19 8 7 6 7 5 3 3 7 6 8 10 8 5 4 5 5 17 27 21 16 16 24 29 31 33 35 34 29 33 27 27 31 29 29 23 17 13 13 14 15 15 15 16 17 17 17 17 16 14 12 8
Wind_Direction_850mb
324 326 327 330 332 333 332 333 333 337 339 341 344 344 343 340 339 340 317 320 321 303 302 359 9 22 8 17 359 311 157 29 246 291 217 22 119 69 139 133 168 159 120 185 204 168 154 125 120 35 112 103 39 7
321 323 327 330 335 340 339 336 334 336 336 341 340 342 340 336 336 338 323 325 316 277 275 300 336 32 20 88 281 301 325 43 16 342 5 79 101 89 127 122 159 156 156 176 161 124 104 88 94 101 81 37 19 37
318 320 326 330 336 341 343 338 333 333 331 333 336 336 337 330 327 331 316 317 324 300 288 235 224 20 19 342 326 310 13 359 37 357 345 12 74 328 121 81 154 94 131 117 125 134 124 107 94 83 61 50 37 15
317 319 324 327 329 334 336 335 335 333 330 323 330 333 331 332 323 318 309 307 318 311 290 275 99 197 21 334 313 356 337 350 3 3 27 97 94 2 70 93 74 44 162 165 121 136 131 108 86 68 66 62 40 10
313 315 323 320 321 327 328 329 332 332 330 325 327 331 330 330 327 318 307 293 304 308 341 287 210 102 61 40 39 16 5 323 296 107 163 72 58 356 30 214 143 127 54 192 111 68 97 112 110 85 69 46 23 0
312 318 322 321 319 322 324 326 329 329 326 327 328 327 325 326 329 338 337 263 299 12 314 293 326 81 70 60 59 63 347 344 351 341 63 77 11 317 149 113 86 76 75 102 97 96 110 102 90 75 57 29 12 7
312 315 321 325 324 326 326 328 327 329 328 327 324 321 320 320 318 302 301 298 319 357 305 303 184 185 70 344 57 68 63 21 335 74 319 91 126 302 324 92 118 118 108 102 112 113 100 103 93 71 47 29 20 27
309 313 321 326 327 333 334 335 330 328 328 327 327 335 336 318 331 317 305 302 335 301 267 261 268 170 274 166 108 27 15 52 8 65 176 117 125 249 95 116 117 124 127 126 109 101 108 112 101 68 55 36 35 28
309 314 318 323 329 332 336 333 332 333 334 336 347 1 37 42 301 308 290 229 197 275 309 277 277 161 178 129 119 86 32 74 338 235 84 36 155 58 106 127 132 144 135 114 115 120 131 137 91 78 56 45 38 29
308 312 314 316 322 326 333 336 333 333 340 354 6 336 2 326 306 325 312 178 195 233 236 293 347 65 191 147 151 151 85 128 128 354 117 138 40 105 92 108 109 111 115 136 134 134 117 109 100 84 63 51 43 35
309 310 314 315 320 327 337 339 341 353 22 358 345 337 319 346 358 273 291 239 204 268 254 41 72 129 32 235 169 115 175 153 137 200 137 217 142 116 122 124 120 128 123 117 110 101 85 91 105 92 72 56 48 39
309 310 318 315 319 333 338 342 351 0 343 323 314 321 339 314 287 296 250 211 232 250 225 334 66 48 51 350 316 159 197 155 140 153 186 174 133 149 125 130 123 122 119 120 117 107 106 106 102 94 77 63 54 46
308 309 314 314 321 336 339 335 352 340 338 326 323 289 274 251 302 240 209 197 168 182 226 169 169 315 225 228 230 237 205 144 136 187 206 117 137 131 136 140 140 138 130 118 117 117 114 105 97 90 80 69 64 55
304 303 308 304 313 330 335 328 341 336 354 287 318 276 251 225 252 348 9 315 357 18 218 191 180 207 208 214 248 227 130 137 198 194 178 141 151 143 140 143 134 135 136 134 129 126 120 107 97 90 80 76 71 61
302 305 307 283 322 325 326 314 315 329 313 287 284 263 281 339 314 335 321 301 303 282 234 182 205 189 202 243 210 213 196 211 229 77 128 143 146 149 145 143 144 146 144 137 139 133 125 115 104 94 86 79 72 63
311 326 304 292 313 328 327 317 309 323 268 258 242 265 306 298 300 329 311 294 294 130 109 9 240 231 225 237 220 211 260 8 94 124 134 139 146 154 148 153 165 158 148 145 139 133 126 119 113 105 93 80 70 59
320 272 296 302 301 319 310 326 337 237 259 254 241 265 286 279 274 277 270 265 341 121 308 232 218 224 222 223 194 86 59 106 114 125 142 149 150 150 156 166 157 144 144 138 135 135 129 126 122 108 90 78 68 59
331 301 282 291 299 341 322 249 252 261 251 251 258 268 271 274 263 264 246 257 246 204 243 238 304 218 233 41 86 99 105 117 134 139 142 140 141 148 155 151 151 139 146 145 143 142 148 148 140 107 99 84 68 55
281 260 276 248 277 331 308 242 224 265 264 270 257 268 245 257 266 260 234 230 241 269 299 312 292 42 54 65 86 105 125 130 138 140 141 141 148 157 153 152 141 148 150 148 146 179 149 109 108 107 100 92 73 45
291 262 192 211 220 269 259 248 218 272 279 297 288 292 293 202 41 324 213 205 241 304 282 354 10 101 97 89 81 102 142 145 144 139 145 153 161 154 148 153 151 149 155 152 157 152 138 150 141 121 102 98 78 55
221 227 221 196 210 234 269 275 239 243 291 289 296 299 298 175 144 326 183 170 220 249 288 44 71 65 92 87 82 60 137 156 147 157 159 161 156 147 142 141 156 158 164 168 162 185 196 168 149 144 164 123 83 60
231 231 213 209 239 237 257 231 256 300 271 275 290 278 276 268 156 194 184 189 227 337 126 103 61 82 94 86 99 91 117 136 143 145 146 152 166 159 156 167 166 172 168 175 174 163 174 177 156 164 184 214 167 175
254 171 211 229 251 231 267 227 238 209 242 275 299 281 261 301 111 206 234 179 144 147 115 125 97 83 117 124 122 148 153 150 156 156 157 168 157 153 157 164 181 169 167 168 159 156 146 148 185 172 201 240 191 211
203 220 241 224 207 255 239 227 235 260 285 272 248 277 295 325 329 274 202 154 130 110 99 64 59 120 110 166 149 159 170 175 152 159 171 159 159 159 159 165 165 129 145 176 167 173 180 175 170 233 218 207 205 213
180 227 209 252 233 232 223 211 235 213 243 208 231 224 251 259 236 237 230 99 102 99 63 56 50 51 27 48 154 160 171 166 172 168 167 163 151 140 140 129 113 110 132 150 172 186 195 203 207 156 117 111 106 292
219 212 193 227 200 214 210 231 197 204 225 233 215 353 2 301 253 168 67 51 59 42 22 355 342 333 2 181 198 175 178 181 176 167 159 159 158 156 152 148 139 119 115 127 147 160 168 171 126 106 125 54 23 53
254 243 216 235 248 247 260 216 150 122 191 234 0 350 50 284 326 62 43 15 0 307 320 298 280 265 266 313 299 195 202 166 168 150 141 148 143 174 181 149 138 130 116 113 122 136 159 164 160 163 174 150 55 35
254 276 236 213 222 242 251 247 183 140 140 129 213 175 242 285 356 9 329 290 288 281 285 285 262 214 220 212 151 175 202 177 153 135 128 126 140 139 145 152 157 159 160 146 122 121 133 150 154 150 145 123 87 60
247 253 263 254 239 230 243 289 88 97 135 216 302 340 95 197 249 298 305 302 288 281 266 262 255 214 192 168 126 154 168 170 162 151 131 138 130 128 146 145 143 149 151 175 198 225 173 151 140 133 128 123 106 78
238 194 224 248 216 229 87 58 106 140 149 204 279 273 234 222 297 304 309 304 301 146 348 270 256 190 180 180 169 148 152 159 163 161 161 160 154 146 143 137 130 126 118 95 90 99 108 99 100 103 113 119 107 96
175 183 263 274 296 80 105 118 132 144 61 281 279 249 274 247 298 293 282 266 257 158 304 211 158 155 174 174 160 154 160 162 151 168 167 171 155 153 143 142 144 143 141 142 137 119 119 129 121 110 101 93 90 89
204 202 216 237 183 108 118 255 230 246 184 228 208 208 242 230 243 266 231 171 156 121 144 88 215 178 154 147 155 159 150 144 162 160 153 146 148 145 141 142 139 134 133 135 134 135 138 137 130 122 112 102 92 84
211 216 229 246 181 205 185 195 182 241 229 237 202 192 197 219 239 242 207 178 163 123 129 129 104 118 131 142 150 156 163 154 154 166 165 158 148 142 133 134 135 137 137 136 132 134 136 134 130 125 118 110 96 77